Location: Schommer Observatory
(40.5200°N, 74.4500°W)
Time: 23:03:19
(UTC-04:00)

ISS - Pass Details

Date: 20 May 2018
Orbit: 402 x 407 km, 51.6° (Epoch: 25 May)

Event Time Altitude Azimuth Distance (km) Brightness Sun altitude
Exits shadow 01:48:54 - 309° (NW) 2,127 0.1 -28.2°
Reaches altitude 10° 01:51:30 10° 339° (NNW) 1,458 -0.4 -28.1°
Maximum altitude 01:52:50 12° 3° (N) 1,346 -0.3 -28.0°
Drops below altitude 10° 01:54:10 10° 27° (NNE) 1,457 -0.1 -27.9°
Sets 01:57:20 0° 61° (ENE) 2,316 0.6 -27.8°
